FW9328 Weather Reports


Display with metric or nautical units.
time (UTC)temp
F
wind
direction
speed
MPH
gust
MPH
rain 1hr
in
rain 24hr
in
rain mn
in
humidity
%
barometer
mb
20240301115542 45 292 4.0 10.0 0.00 0.00 0.00 34 1009.5
20240301115041 43 281 4.0 7.0 0.00 0.00 0.00 36 1009.5
20240301114551 41 273 2.0 4.0 0.00 0.00 0.00 39 1009.7
20240301114042 41 346 1.0 3.0 0.00 0.00 0.00 40 1009.8
20240301113546 42 0 0.0 5.0 0.00 0.00 0.00 38 1009.8
20240301113043 42 0 0.0 5.0 0.00 0.00 0.00 39 1009.8
20240301112545 42 5 1.0 5.0 0.00 0.00 0.00 39 1009.8
20240301112044 41 0 1.0 5.0 0.00 0.00 0.00 39 1009.5
20240301111553 41 0 2.0 4.0 0.00 0.00 0.00 39 1009.4
20240301111043 42 279 0.0 3.0 0.00 0.00 0.00 38 1009.4
20240301110542 42 0 1.0 3.0 0.00 0.00 0.00 37 1009.5
20240301110050 42 0 1.0 3.0 0.00 0.00 0.00 38 1009.5
20240301105542 43 229 1.0 3.0 0.00 0.00 0.00 38 1009.5
20240301105042 43 275 0.0 2.0 0.00 0.00 0.00 36 1009.5
20240301104549 43 0 0.0 3.0 0.00 0.00 0.00 38 1009.3
20240301104042 43 0 1.0 4.0 0.00 0.00 0.00 35 1009.4
20240301103542 43 292 2.0 6.0 0.00 0.00 0.00 35 1009.4
20240301103106 43 213 2.0 6.0 0.00 0.00 0.00 36 1009.4
20240301102541 43 304 1.0 2.0 0.00 0.00 0.00 35 1009.4
20240301102044 43 0 0.0 2.0 0.00 0.00 0.00 34 1009.4
20240301101601 44 0 0.0 3.0 0.00 0.00 0.00 34 1009.5
20240301101042 44 234 1.0 3.0 0.00 0.00 0.00 34 1009.5
20240301100546 45 226 0.0 3.0 0.00 0.00 0.00 33 1009.6
20240301100046 46 233 1.0 4.0 0.00 0.00 0.00 32 1009.6
20240301095544 46 231 0.0 4.0 0.00 0.00 0.00 31 1009.5
20240301095041 47 246 0.0 4.0 0.00 0.00 0.00 30 1009.6
20240301094550 48 280 1.0 4.0 0.00 0.00 0.00 30 1009.5
20240301094042 48 190 0.0 4.0 0.00 0.00 0.00 29 1009.6
20240301093541 49 223 0.0 8.0 0.00 0.00 0.00 28 1009.5
20240301093046 49 215 1.0 8.0 0.00 0.00 0.00 28 1009.5
20240301092542 49 257 3.0 8.0 0.00 0.00 0.00 28 1009.5
20240301092042 49 248 0.0 6.0 0.00 0.00 0.00 27 1009.7
20240301091549 49 0 0.0 6.0 0.00 0.00 0.00 27 1009.8
20240301091046 48 236 2.0 6.0 0.00 0.00 0.00 28 1009.9
20240301090542 48 248 2.0 11.0 0.00 0.00 0.00 28 1009.9
20240301090046 48 234 3.0 11.0 0.00 0.00 0.00 28 1009.8
20240301085542 47 292 2.0 5.0 0.00 0.00 0.00 28 1009.8
20240301085042 46 256 2.0 5.0 0.00 0.00 0.00 29 1009.9
20240301084558 46 221 1.0 4.0 0.00 0.00 0.00 30 1009.9
20240301084041 46 257 0.0 3.0 0.00 0.00 0.00 30 1009.9
20240301083542 47 0 0.0 3.0 0.00 0.00 0.00 29 1009.8
20240301083048 47 267 0.0 3.0 0.00 0.00 0.00 29 1009.9
20240301082542 47 0 0.0 3.0 0.00 0.00 0.00 28 1010.0
20240301082046 46 116 0.0 3.0 0.00 0.00 0.00 29 1009.9
20240301081546 47 223 0.0 6.0 0.00 0.00 0.00 28 1010.0
20240301081041 47 226 1.0 10.0 0.00 0.00 0.00 29 1009.8
20240301080544 47 83 2.0 10.0 0.00 0.00 0.00 29 1009.6
20240301080054 45 192 4.0 10.0 0.00 0.00 0.00 29 1009.8
20240301075541 44 320 1.0 7.0 0.00 0.00 0.00 33 1009.9
20240301075042 44 262 1.0 15.0 0.00 0.00 0.00 31 1010.0
20240301074554 44 21 2.0 15.0 0.00 0.00 0.00 33 1009.9
20240301074041 42 267 3.0 15.0 0.00 0.00 0.00 32 1009.9
20240301073542 42 223 2.0 4.0 0.00 0.00 0.00 35 1009.9
20240301073104 42 219 1.0 5.0 0.00 0.00 0.00 35 1009.7
20240301072541 42 279 2.0 5.0 0.00 0.00 0.00 34 1009.7
20240301072042 42 292 1.0 4.0 0.00 0.00 0.00 35 1009.7
20240301071559 42 0 0.0 4.0 0.00 0.00 0.00 35 1009.5
20240301071041 43 284 1.0 4.0 0.00 0.00 0.00 34 1009.5
20240301070542 43 290 2.0 4.0 0.00 0.00 0.00 33 1009.4
20240301070055 44 286 0.0 4.0 0.00 0.00 0.00 33 1009.4
20240301065542 44 286 2.0 4.0 0.00 0.00 0.00 31 1009.5
20240301065042 45 291 1.0 4.0 0.00 0.00 0.00 30 1009.5
20240301064550 47 284 0.0 1.0 0.00 0.00 0.00 27 1009.5
20240301064042 47 0 0.0 3.0 0.00 0.00 0.00 27 1009.6
20240301063542 47 0 0.0 3.0 0.00 0.00 0.00 27 1009.7
20240301063048 48 0 1.0 3.0 0.00 0.00 0.00 26 1009.8
20240301062542 49 284 0.0 5.0 0.00 0.00 0.00 25 1010.0
20240301062046 50 205 0.0 7.0 0.00 0.00 0.00 24 1010.0
20240301061552 50 0 2.0 8.0 0.00 0.00 0.00 22 1010.1
20240301061042 50 162 2.0 10.0 0.00 0.00 0.00 23 1010.0
20240301060542 50 223 2.0 10.0 0.00 0.00 0.00 22 1010.3
20240301060103 50 161 3.0 10.0 0.00 0.00 0.00 22 1010.2
20240301055541 50 0 1.0 4.0 0.00 0.00 0.00 22 1010.1
20240301055041 50 189 1.0 4.0 0.00 0.00 0.00 22 1010.3
20240301054554 50 184 1.0 5.0 0.00 0.00 0.00 22 1010.4
20240301054045 51 171 1.0 5.0 0.00 0.00 0.00 22 1010.4
20240301053542 51 155 1.0 5.0 0.00 0.00 0.00 22 1010.4
20240301053057 51 0 1.0 4.0 0.00 0.00 0.00 21 1010.6
20240301052542 51 178 1.0 6.0 0.00 0.00 0.00 21 1010.7
20240301052041 51 82 1.0 9.0 0.00 0.00 0.00 21 1010.7
20240301051558 51 227 1.0 9.0 0.00 0.00 0.00 21 1010.8
20240301051044 51 179 3.0 9.0 0.00 0.00 0.00 21 1010.9
20240301050542 51 170 1.0 9.0 0.00 0.00 0.00 20 1010.8
20240301050102 51 0 1.0 10.0 0.00 0.00 0.00 21 1010.8
20240301045545 51 201 5.0 10.0 0.00 0.00 0.00 20 1010.9
20240301045041 51 241 4.0 9.0 0.00 0.00 0.00 21 1010.8
20240301044548 52 184 4.0 10.0 0.00 0.00 0.00 20 1010.9
20240301044042 52 176 3.0 10.0 0.00 0.00 0.00 20 1011.0
20240301043541 51 165 2.0 6.0 0.00 0.00 0.00 20 1011.1
20240301043053 51 178 2.0 9.0 0.00 0.00 0.00 20 1011.1
20240301042546 52 169 2.0 9.0 0.00 0.00 0.00 21 1011.2
20240301042044 52 202 4.0 12.0 0.00 0.00 0.00 20 1011.2
20240301041558 51 163 5.0 12.0 0.00 0.00 0.00 21 1011.1
20240301041041 50 184 4.0 11.0 0.00 0.00 0.00 22 1011.1
20240301040544 48 178 4.0 11.0 0.00 0.00 0.00 23 1011.1
20240301040042 48 183 2.0 6.0 0.00 0.00 0.00 24 1011.2
20240301035541 48 184 2.0 5.0 0.00 0.00 0.00 24 1011.4
20240301035042 47 180 1.0 5.0 0.00 0.00 0.00 23 1011.4
20240301034546 47 169 2.0 5.0 0.00 0.00 0.00 24 1011.5
20240301034042 46 166 1.0 5.0 0.00 0.00 0.00 25 1011.5
20240301033541 45 158 2.0 5.0 0.00 0.00 0.00 26 1011.4
20240301033046 44 197 1.0 5.0 0.00 0.00 0.00 27 1011.4
20240301032542 44 168 0.0 4.0 0.00 0.00 0.00 26 1011.2
20240301032042 44 0 0.0 4.0 0.00 0.00 0.00 28 1011.2
20240301031543 44 138 0.0 2.0 0.00 0.00 0.00 28 1011.2
20240301031046 44 125 0.0 2.0 0.00 0.00 0.00 28 1011.2
20240301030541 44 0 0.0 2.0 0.00 0.00 0.00 29 1011.3
20240301030049 44 0 0.0 2.0 0.00 0.00 0.00 27 1011.3
20240301025542 45 0 0.0 3.0 0.00 0.00 0.00 28 1011.3
20240301025041 45 0 0.0 4.0 0.00 0.00 0.00 27 1011.1
20240301024551 45 278 1.0 6.0 0.00 0.00 0.00 26 1011.3
20240301024042 45 273 3.0 6.0 0.00 0.00 0.00 27 1011.5
20240301023547 45 0 1.0 5.0 0.00 0.00 0.00 25 1011.4
20240301023053 45 275 3.0 5.0 0.00 0.00 0.00 27 1011.3
20240301022540 45 0 1.0 4.0 0.00 0.00 0.00 28 1011.3
20240301022102 45 335 2.0 4.0 0.00 0.00 0.00 27 1011.3
20240301021551 46 299 1.0 4.0 0.00 0.00 0.00 27 1011.5
20240301021042 46 32 2.0 4.0 0.00 0.00 0.00 26 1011.4
20240301020542 46 0 0.0 3.0 0.00 0.00 0.00 28 1011.5
20240301020046 47 0 1.0 3.0 0.00 0.00 0.00 28 1011.5
20240301015542 48 335 1.0 3.0 0.00 0.00 0.00 27 1011.6
20240301015042 48 346 1.0 3.0 0.00 0.00 0.00 26 1011.6
20240301014547 49 350 1.0 3.0 0.00 0.00 0.00 23 1011.6
20240301014042 50 165 0.0 1.0 0.00 0.00 0.00 25 1011.5
20240301013545 50 0 0.0 1.0 0.00 0.00 0.00 24 1011.4
20240301013046 51 212 0.0 2.0 0.00 0.00 0.00 24 1011.5
20240301012542 51 0 0.0 3.0 0.00 0.00 0.00 23 1011.5
20240301012041 52 0 0.0 7.0 0.00 0.00 0.00 22 1011.4
20240301011552 52 195 1.0 7.0 0.00 0.00 0.00 21 1011.3
20240301011044 53 194 1.0 6.0 0.00 0.00 0.00 21 1011.2
20240301010543 53 0 0.0 3.0 0.00 0.00 0.00 22 1011.3
20240301010046 54 275 0.0 4.0 0.00 0.00 0.00 21 1011.4
20240301005541 54 250 1.0 4.0 0.00 0.00 0.00 20 1011.4
20240301005042 55 208 0.0 3.0 0.00 0.00 0.00 19 1011.5
20240301004551 56 232 0.0 3.0 0.00 0.00 0.00 19 1011.4
20240301004041 56 0 0.0 4.0 0.00 0.00 0.00 19 1011.5
20240301003541 56 0 1.0 7.0 0.00 0.00 0.00 18 1011.3
20240301003108 57 284 1.0 7.0 0.00 0.00 0.00 18 1011.3
20240301002547 57 280 3.0 7.0 0.00 0.00 0.00 17 1011.4
20240301002042 58 291 1.0 8.0 0.00 0.00 0.00 18 1011.3
20240301001549 58 295 2.0 8.0 0.00 0.00 0.00 17 1011.3
20240301001041 58 276 3.0 7.0 0.00 0.00 0.00 17 1011.3
20240301000542 59 292 3.0 8.0 0.00 0.00 0.00 16 1011.4
20240301000054 59 265 4.0 9.0 0.00 0.00 0.00 16 1011.3
20240229235544 59 242 3.0 12.0 0.00 0.00 0.00 16 1011.3
20240229235043 59 331 4.0 16.0 0.00 0.00 0.00 17 1011.2
20240229234557 59 350 7.0 16.0 0.00 0.00 0.00 16 1011.1
20240229234042 60 240 4.0 14.0 0.00 0.00 0.00 16 1011.1
20240229233543 60 287 6.0 14.0 0.00 0.00 0.00 16 1011.0
20240229233056 60 239 7.0 14.0 0.00 0.00 0.00 16 1011.0
20240229232542 60 262 5.0 14.0 0.00 0.00 0.00 16 1011.0
20240229232042 60 267 6.0 12.0 0.00 0.00 0.00 16 1010.9
20240229231559 61 276 5.0 18.0 0.00 0.00 0.00 16 1010.9
20240229231045 61 269 7.0 18.0 0.00 0.00 0.00 15 1010.8
20240229230541 61 292 6.0 14.0 0.00 0.00 0.00 15 1010.9
20240229230053 61 291 5.0 14.0 0.00 0.00 0.00 15 1010.7
20240229225542 61 296 4.0 15.0 0.00 0.00 0.00 15 1010.7
20240229225042 61 280 7.0 19.0 0.00 0.00 0.00 15 1010.8
20240229224551 61 300 9.0 19.0 0.00 0.00 0.00 15 1010.8
20240229224043 62 302 6.0 15.0 0.00 0.00 0.00 14 1010.7
20240229223542 62 275 7.0 16.0 0.00 0.00 0.00 14 1010.7
20240229223054 62 220 8.0 16.0 0.00 0.00 0.00 15 1010.6
20240229222545 62 230 4.0 15.0 0.00 0.00 0.00 15 1010.7
20240229222042 63 269 8.0 15.0 0.00 0.00 0.00 14 1010.6
20240229221551 64 331 5.0 15.0 0.00 0.00 0.00 14 1010.7
20240229221044 64 215 6.0 14.0 0.00 0.00 0.00 13 1010.6
20240229220542 65 180 4.0 14.0 0.00 0.00 0.00 13 1010.6
20240229220046 65 200 7.0 14.0 0.00 0.00 0.00 13 1010.6
20240229215541 65 256 3.0 8.0 0.00 0.00 0.00 14 1010.5
20240229215043 65 174 2.0 9.0 0.00 0.00 0.00 13 1010.6
20240229214546 64 249 3.0 13.0 0.00 0.00 0.00 14 1010.6
20240229214042 65 306 4.0 13.0 0.00 0.00 0.00 13 1010.4
20240229213542 66 280 5.0 13.0 0.00 0.00 0.00 13 1010.5
20240229213051 67 332 5.0 10.0 0.00 0.00 0.00 12 1010.5
20240229212541 67 28 4.0 10.0 0.00 0.00 0.00 15 1010.6
20240229212042 66 35 4.0 9.0 0.00 0.00 0.00 14 1010.8
20240229211553 65 65 4.0 7.0 0.00 0.00 0.00 14 1010.9
20240229211042 66 69 3.0 14.0 0.00 0.00 0.00 14 1010.9
20240229210545 66 117 4.0 14.0 0.00 0.00 0.00 14 1010.9
20240229210049 66 40 6.0 13.0 0.00 0.00 0.00 13 1010.8
20240229205541 66 16 3.0 10.0 0.00 0.00 0.00 14 1011.0
20240229205044 65 47 4.0 10.0 0.00 0.00 0.00 14 1011.1
20240229204554 65 49 4.0 10.0 0.00 0.00 0.00 14 1011.1
20240229204045 64 100 4.0 10.0 0.00 0.00 0.00 15 1011.3
20240229203542 63 22 4.0 8.0 0.00 0.00 0.00 14 1011.3
20240229203059 64 78 3.0 7.0 0.00 0.00 0.00 14 1011.4
20240229202546 65 96 3.0 10.0 0.00 0.00 0.00 13 1011.5
20240229202041 65 73 4.0 10.0 0.00 0.00 0.00 14 1011.5
20240229201554 65 98 2.0 7.0 0.00 0.00 0.00 13 1011.5
20240229201042 65 79 1.0 7.0 0.00 0.00 0.00 13 1011.7
20240229200604 64 30 3.0 7.0 0.00 0.00 0.00 14 1011.7
20240229200048 64 58 2.0 6.0 0.00 0.00 0.00 14 1011.9
20240229195542 64 62 2.0 6.0 0.00 0.00 0.00 15 1011.9
20240229195041 64 96 1.0 6.0 0.00 0.00 0.00 13 1012.0
20240229194547 64 90 2.0 7.0 0.00 0.00 0.00 14 1012.1
20240229194042 64 351 2.0 7.0 0.00 0.00 0.00 15 1012.2
20240229193542 64 0 3.0 7.0 0.00 0.00 0.00 15 1012.3
20240229193049 65 0 1.0 8.0 0.00 0.00 0.00 15 1012.4
20240229192542 64 54 2.0 8.0 0.00 0.00 0.00 14 1012.4
20240229192041 63 22 1.0 7.0 0.00 0.00 0.00 16 1012.5
20240229191544 62 45 4.0 8.0 0.00 0.00 0.00 17 1012.6
20240229191041 62 124 2.0 8.0 0.00 0.00 0.00 18 1012.7
20240229190542 61 11 2.0 7.0 0.00 0.00 0.00 18 1012.7
20240229190046 60 99 2.0 7.0 0.00 0.00 0.00 19 1012.8
20240229185542 60 98 2.0 8.0 0.00 0.00 0.00 18 1012.9
20240229185042 61 97 3.0 9.0 0.00 0.00 0.00 18 1012.9
20240229184550 62 119 3.0 9.0 0.00 0.00 0.00 17 1012.9
20240229184044 61 58 1.0 5.0 0.00 0.00 0.00 19 1013.1
20240229183543 60 360 2.0 6.0 0.00 0.00 0.00 20 1013.2
20240229183100 60 84 2.0 6.0 0.00 0.00 0.00 19 1013.2
20240229182545 59 34 3.0 6.0 0.00 0.00 0.00 20 1013.3
20240229182041 59 117 2.0 5.0 0.00 0.00 0.00 21 1013.3
20240229181606 58 92 2.0 7.0 0.00 0.00 0.00 20 1013.3
20240229181041 58 76 2.0 7.0 0.00 0.00 0.00 18 1013.3
20240229180543 59 87 1.0 5.0 0.00 0.00 0.00 20 1013.5
20240229180055 59 0 1.0 6.0 0.00 0.00 0.00 21 1013.5
20240229175542 59 45 2.0 6.0 0.00 0.00 0.00 23 1013.5
20240229175042 58 59 3.0 6.0 0.00 0.00 0.00 23 1013.5
20240229174554 57 52 0.0 4.0 0.00 0.00 0.00 24 1013.5
20240229174041 56 19 1.0 4.0 0.00 0.00 0.00 25 1013.6
20240229173542 56 44 2.0 6.0 0.00 0.00 0.00 25 1013.8
20240229173047 56 0 2.0 6.0 0.00 0.00 0.00 25 1013.7
20240229172542 55 24 1.0 7.0 0.00 0.00 0.00 27 1013.8
20240229172041 55 35 2.0 7.0 0.00 0.00 0.00 26 1014.0
20240229171558 54 38 3.0 7.0 0.00 0.00 0.00 24 1014.0
20240229171041 54 50 3.0 7.0 0.00 0.00 0.00 24 1014.1
20240229170542 53 39 2.0 6.0 0.00 0.00 0.00 25 1014.2
20240229170103 53 34 3.0 6.0 0.00 0.00 0.00 28 1014.2
20240229165541 52 32 3.0 6.0 0.00 0.00 0.00 27 1014.2
20240229165043 51 43 1.0 5.0 0.00 0.00 0.00 31 1014.1
20240229164555 51 43 2.0 5.0 0.00 0.00 0.00 30 1014.2
20240229164046 51 51 3.0 5.0 0.00 0.00 0.00 32 1014.2
20240229163543 51 68 2.0 5.0 0.00 0.00 0.00 34 1014.3
20240229163109 50 0 1.0 7.0 0.00 0.00 0.00 28 1014.2
20240229162543 50 59 4.0 7.0 0.00 0.00 0.00 28 1014.3
20240229162045 49 64 2.0 5.0 0.00 0.00 0.00 29 1014.3
20240229161608 48 37 1.0 4.0 0.00 0.00 0.00 27 1014.5
20240229161046 48 96 2.0 4.0 0.00 0.00 0.00 26 1014.4
20240229160547 47 108 2.0 4.0 0.00 0.00 0.00 27 1014.4
20240229160135 47 88 1.0 4.0 0.00 0.00 0.00 29 1014.4
20240229155542 46 84 1.0 3.0 0.00 0.00 0.00 30 1014.4
20240229155044 45 93 0.0 3.0 0.00 0.00 0.00 30 1014.5
20240229154548 44 0 0.0 3.0 0.00 0.00 0.00 32 1014.6
20240229154043 43 118 1.0 3.0 0.00 0.00 0.00 33 1014.7
20240229153542 42 0 0.0 2.0 0.00 0.00 0.00 33 1014.7
20240229153057 42 28 0.0 1.0 0.00 0.00 0.00 35 1014.8
20240229152542 41 0 0.0 1.0 0.00 0.00 0.00 35 1014.8
20240229152044 40 20 0.0 1.0 0.00 0.00 0.00 43 1014.9
20240229151558 39 0 0.0 1.0 0.00 0.00 0.00 43 1014.9
20240229151044 37 0 0.0 2.0 0.00 0.00 0.00 42 1014.9
20240229150544 36 0 0.0 2.0 0.00 0.00 0.00 47 1014.9
20240229150056 34 0 0.0 2.0 0.00 0.00 0.00 51 1014.9
20240229145543 33 0 0.0 3.0 0.00 0.00 0.00 51 1015.0
20240229145043 32 0 0.0 3.0 0.00 0.00 0.00 49 1014.9
20240229144558 31 20 2.0 3.0 0.00 0.00 0.00 60 1014.9
20240229144042 30 0 0.0 2.0 0.00 0.00 0.00 55 1014.9
20240229143543 29 244 0.0 2.0 0.00 0.00 0.00 54 1014.8
20240229143103 28 0 0.0 2.0 0.00 0.00 0.00 56 1014.9
20240229142544 28 229 0.0 3.0 0.00 0.00 0.00 58 1014.9
20240229142043 27 0 0.0 3.0 0.00 0.00 0.00 58 1014.8
20240229141602 27 229 1.0 3.0 0.00 0.00 0.00 58 1014.8
20240229141042 27 0 1.0 5.0 0.00 0.00 0.00 60 1014.9
20240229140542 26 237 1.0 5.0 0.00 0.00 0.00 60 1014.9
20240229140044 26 222 0.0 5.0 0.00 0.00 0.00 61 1014.9
20240229135542 26 0 0.0 3.0 0.00 0.00 0.00 61 1015.0
20240229135044 26 0 0.0 4.0 0.00 0.00 0.00 62 1015.0
20240229134604 25 0 2.0 4.0 0.00 0.00 0.00 62 1015.0
20240229134041 25 288 0.0 4.0 0.00 0.00 0.00 61 1015.0
20240229133542 25 0 0.0 4.0 0.00 0.00 0.00 62 1015.0
20240229133052 25 0 2.0 4.0 0.00 0.00 0.00 60 1014.9
20240229132541 25 229 1.0 3.0 0.00 0.00 0.00 62 1015.0
20240229132042 25 246 0.0 2.0 0.00 0.00 0.00 62 1015.0
20240229131551 26 0 0.0 2.0 0.00 0.00 0.00 62 1015.0
20240229131045 26 246 0.0 2.0 0.00 0.00 0.00 63 1014.9
20240229130549 26 248 0.0 2.0 0.00 0.00 0.00 60 1015.0
20240229130051 26 245 0.0 2.0 0.00 0.00 0.00 61 1014.9
20240229125542 26 0 0.0 2.0 0.00 0.00 0.00 60 1015.0
20240229125045 26 248 1.0 2.0 0.00 0.00 0.00 61 1015.0
20240229124601 26 248 1.0 4.0 0.00 0.00 0.00 61 1015.0
20240229124043 26 245 1.0 4.0 0.00 0.00 0.00 61 1015.0
20240229123541 26 287 0.0 2.0 0.00 0.00 0.00 61 1014.9
20240229123057 26 290 0.0 2.0 0.00 0.00 0.00 60 1014.7
20240229122541 26 0 0.0 4.0 0.00 0.00 0.00 57 1014.8
20240229122041 26 290 0.0 4.0 0.00 0.00 0.00 57 1014.7
20240229121547 26 291 1.0 4.0 0.00 0.00 0.00 60 1014.7
20240229121041 26 243 0.0 2.0 0.00 0.00 0.00 60 1014.6
20240229120541 26 0 0.0 4.0 0.00 0.00 0.00 59 1014.3
20240229120048 26 243 1.0 4.0 0.00 0.00 0.00 58 1014.4